GW2008 Weather Reports


time (UTC)temp
F
wind
direction
speed
knots
gust
knots
rain 1hr
in
rain 24hr
in
rain mn
in
humidity
%
barometer
mb
20260502170232 84 187 2.6 2.6 0.00 0.00 0.00 35 988.8
20260502164219 84 171 6.1 7.8 0.00 0.00 0.00 35 988.7
20260502163714 84 83 7.0 8.7 0.00 0.00 0.00 35 988.7
20260502163211 84 171 3.5 7.8 0.00 0.00 0.00 35 988.6
20260502162708 83 123 7.0 8.7 0.00 0.00 0.00 34 988.7
20260502162205 84 166 9.6 13.0 0.00 0.00 0.00 35 988.7
20260502161702 83 129 8.7 11.3 0.00 0.00 0.00 34 988.5
20260502161158 83 164 3.5 5.2 0.00 0.00 0.00 34 988.5
20260502160657 82 117 5.2 6.1 0.00 0.00 0.00 34 988.6
20260502160155 83 111 7.8 8.7 0.00 0.00 0.00 32 988.5
20260502152109 80 172 4.3 6.1 0.00 0.00 0.00 31 988.2
20260502151606 80 179 2.6 2.6 0.00 0.00 0.00 32 988.3
20260502151104 79 179 5.2 7.0 0.00 0.00 0.00 32 988.4
20260502150601 80 184 0.9 1.7 0.00 0.00 0.00 32 988.2
20260502130446 71 321 0.0 0.0 0.00 0.00 0.00 34 986.8
20260502123429 72 320 0.9 1.7 0.00 0.00 0.00 33 986.5
20260502122926 72 325 2.6 2.6 0.00 0.00 0.00 33 986.2
20260502122422 72 321 0.0 0.9 0.00 0.00 0.00 34 986.1
20260502121920 73 321 2.6 2.6 0.00 0.00 0.00 34 986.2
20260502121417 73 324 0.9 1.7 0.00 0.00 0.00 32 986.1
20260502120915 72 189 2.6 4.3 0.00 0.00 0.00 34 986.0
20260502120410 72 190 1.7 2.6 0.00 0.00 0.00 35 986.0
20260502115908 72 190 0.9 1.7 0.00 0.00 0.00 34 986.0
20260502115405 71 196 1.7 1.7 0.00 0.00 0.00 36 985.9
20260502114901 69 215 0.9 0.9 0.00 0.00 0.00 37 985.8
20260502114358 70 195 0.9 0.9 0.00 0.00 0.00 36 985.9
20260502113855 71 191 0.9 0.9 0.00 0.00 0.00 36 986.2
20260502113352 71 192 0.9 0.9 0.00 0.00 0.00 36 986.0
20260502112851 71 191 1.7 1.7 0.00 0.00 0.00 36 985.9
20260502112348 71 191 0.9 1.7 0.00 0.00 0.00 36 986.0
20260502111845 71 190 1.7 1.7 0.00 0.00 0.00 35 986.0
20260502111343 70 190 1.7 1.7 0.00 0.00 0.00 36 986.0
20260502110840 70 190 0.9 1.7 0.00 0.00 0.00 36 986.0
20260502110338 70 190 2.6 2.6 0.00 0.00 0.00 36 985.9
20260502105835 71 190 1.7 1.7 0.00 0.00 0.00 35 985.9
20260502105331 73 190 0.9 1.7 0.00 0.00 0.00 34 985.8
20260502104824 73 312 1.7 1.7 0.00 0.00 0.00 33 985.8
20260502104321 72 318 2.6 2.6 0.00 0.00 0.00 34 985.9
20260502103818 72 192 0.9 0.9 0.00 0.00 0.00 34 986.0
20260502103315 72 190 0.9 1.7 0.00 0.00 0.00 34 985.7
20260502102813 72 191 1.7 2.6 0.00 0.00 0.00 34 985.8
20260502102309 71 203 0.0 0.9 0.00 0.00 0.00 35 985.8
20260502101807 72 200 0.9 0.9 0.00 0.00 0.00 34 985.8
20260502101305 72 199 0.9 0.9 0.00 0.00 0.00 34 985.7
20260502100803 72 285 1.7 1.7 0.00 0.00 0.00 34 985.6
20260502100302 72 219 1.7 1.7 0.00 0.00 0.00 34 985.5
20260502091235 72 268 0.9 0.9 0.00 0.00 0.00 34 985.5
20260502090733 72 231 0.0 0.0 0.00 0.00 0.00 34 985.4
20260502090229 73 232 0.0 0.0 0.00 0.00 0.00 33 985.4
20260502071130 77 234 0.9 0.9 0.00 0.00 0.00 27 984.7
20260502070628 77 255 3.5 4.3 0.00 0.00 0.00 26 984.5
20260502070126 76 225 0.9 0.9 0.00 0.00 0.00 27 984.4
20260502065624 77 263 2.6 2.6 0.00 0.00 0.00 27 984.8
20260502065121 76 233 0.0 0.0 0.00 0.00 0.00 27 984.4
20260502064620 77 227 0.0 0.9 0.00 0.00 0.00 27 984.5
20260502064117 78 243 0.9 1.7 0.00 0.00 0.00 26 984.4
20260502063614 78 220 0.9 0.9 0.00 0.00 0.00 26 984.6
20260502063112 78 238 0.0 0.9 0.00 0.00 0.00 26 984.4
20260502062609 77 233 3.5 4.3 0.00 0.00 0.00 27 984.5
20260502062107 78 230 1.7 1.7 0.00 0.00 0.00 27 984.3
20260502061604 78 225 0.0 0.9 0.00 0.00 0.00 27 984.6
20260502061101 77 228 1.7 1.7 0.00 0.00 0.00 27 984.6
20260502060556 78 250 0.9 1.7 0.00 0.00 0.00 27 984.4
20260502060053 77 230 3.5 4.3 0.00 0.00 0.00 27 984.4
20260502055550 78 240 1.7 1.7 0.00 0.00 0.00 27 984.3
20260502055049 78 260 2.6 4.3 0.00 0.00 0.00 26 984.4
20260502054547 80 260 0.9 1.7 0.00 0.00 0.00 25 984.4
20260502054044 83 265 2.6 2.6 0.00 0.00 0.00 24 984.4
20260502053541 82 228 1.7 2.6 0.00 0.00 0.00 24 984.3
20260502053039 83 220 1.7 1.7 0.00 0.00 0.00 24 984.2
20260502052537 83 230 2.6 4.3 0.00 0.00 0.00 24 984.1
20260502052035 83 225 0.9 0.9 0.00 0.00 0.00 24 984.0
20260502051533 84 228 2.6 2.6 0.00 0.00 0.00 23 984.3
20260502051030 83 227 2.6 4.3 0.00 0.00 0.00 24 984.1
20260502050526 84 225 0.9 0.9 0.00 0.00 0.00 24 984.0
20260502050023 84 227 3.5 4.3 0.00 0.00 0.00 23 984.1
20260502045520 81 218 1.7 1.7 0.00 0.00 0.00 24 984.0
20260502045017 80 217 0.0 0.0 0.00 0.00 0.00 26 984.0
20260502044513 83 217 0.0 0.0 0.00 0.00 0.00 26 983.7
20260502044010 83 222 0.9 1.7 0.00 0.00 0.00 24 983.7
20260502043508 83 222 0.0 0.0 0.00 0.00 0.00 24 983.9
20260502043004 83 221 0.0 0.0 0.00 0.00 0.00 24 983.9
20260502042459 83 219 0.0 0.9 0.00 0.00 0.00 24 983.6
20260502041957 82 219 0.0 0.0 0.00 0.00 0.00 24 983.7
20260502041454 82 219 0.0 0.9 0.00 0.00 0.00 24 983.6
20260502040945 82 222 0.0 0.0 0.00 0.00 0.00 24 983.5
20260502040442 81 222 0.0 0.0 0.00 0.00 0.00 24 983.4
20260502035938 82 222 0.0 0.0 0.00 0.00 0.00 24 983.5
20260502035434 83 222 0.0 0.0 0.00 0.00 0.00 23 983.5
20260502034932 84 221 0.0 0.0 0.00 0.00 0.00 23 983.3
20260502034431 84 221 0.0 0.0 0.00 0.00 0.00 22 983.5
20260502033929 84 221 0.0 0.0 0.00 0.00 0.00 22 983.4
20260502033426 85 220 0.0 0.0 0.00 0.00 0.00 22 983.4
20260502032922 86 220 0.9 0.9 0.00 0.00 0.00 22 983.1
20260502032419 85 218 0.0 0.0 0.00 0.00 0.00 23 983.1
20260502031916 86 219 1.7 1.7 0.00 0.00 0.00 22 983.1
20260502031415 86 224 2.6 2.6 0.00 0.00 0.00 22 983.1
20260502030913 86 215 2.6 4.3 0.00 0.00 0.00 22 982.9
20260502030411 86 222 4.3 5.2 0.00 0.00 0.00 22 983.0
20260502025908 86 221 3.5 5.2 0.00 0.00 0.00 22 982.9
20260502025405 86 236 3.5 4.3 0.00 0.00 0.00 23 982.8
20260502024903 86 229 1.7 1.7 0.00 0.00 0.00 22 982.7
20260502024401 86 227 2.6 2.6 0.00 0.00 0.00 22 982.9
20260502023858 87 234 2.6 4.3 0.00 0.00 0.00 22 982.7
20260502023356 87 225 4.3 5.2 0.00 0.00 0.00 22 982.5
20260502022853 87 221 4.3 5.2 0.00 0.00 0.00 22 982.5
20260502022349 87 227 3.5 4.3 0.00 0.00 0.00 22 982.5
20260502021846 87 221 2.6 4.3 0.00 0.00 0.00 23 982.5
20260502021343 87 218 2.6 2.6 0.00 0.00 0.00 23 982.4
20260502020841 87 223 4.3 5.2 0.00 0.00 0.00 23 982.2
20260502020338 87 226 2.6 4.3 0.00 0.00 0.00 23 982.4
20260502015835 87 218 2.6 2.6 0.00 0.00 0.00 23 982.4
20260502015332 87 224 1.7 1.7 0.00 0.00 0.00 23 982.3
20260502014829 88 227 1.7 2.6 0.00 0.00 0.00 23 982.3
20260502014326 88 223 1.7 1.7 0.00 0.00 0.00 23 982.3
20260502013822 88 236 3.5 5.2 0.00 0.00 0.00 23 982.3
20260502013318 88 242 4.3 5.2 0.00 0.00 0.00 23 982.2
20260502012815 88 220 1.7 2.6 0.00 0.00 0.00 23 982.4
20260502012313 89 220 4.3 5.2 0.00 0.00 0.00 22 982.1
20260502011810 89 214 0.9 1.7 0.00 0.00 0.00 23 982.3
20260502011306 89 235 2.6 4.3 0.00 0.00 0.00 23 982.1
20260502010804 89 226 2.6 2.6 0.00 0.00 0.00 23 982.4
20260502010259 89 246 3.5 4.3 0.00 0.00 0.00 23 982.4
20260502005756 89 242 1.7 2.6 0.00 0.00 0.00 23 982.6
20260502005254 89 237 0.9 1.7 0.00 0.00 0.00 23 982.5
20260502004751 90 220 0.9 0.9 0.00 0.00 0.00 23 982.4
20260502004247 89 238 2.6 4.3 0.00 0.00 0.00 24 982.4
20260502003745 89 253 2.6 4.3 0.00 0.00 0.00 23 982.4
20260502003242 89 230 4.3 5.2 0.00 0.00 0.00 24 982.3
20260502002737 89 212 0.9 1.7 0.00 0.00 0.00 24 982.3
20260502002235 89 222 2.6 4.3 0.00 0.00 0.00 24 982.4
20260502001732 89 229 3.5 5.2 0.00 0.00 0.00 24 982.5
20260502001230 90 219 6.1 7.0 0.00 0.00 0.00 24 982.5
20260502000728 89 229 0.9 0.9 0.00 0.00 0.00 24 982.6
20260502000226 89 232 5.2 6.1 0.00 0.00 0.00 24 982.6
20260501235721 89 219 4.3 6.1 0.00 0.00 0.00 24 982.6
20260501235217 89 243 2.6 2.6 0.00 0.00 0.00 25 982.6
20260501234713 89 228 3.5 5.2 0.00 0.00 0.00 25 982.7
20260501234210 88 220 0.0 0.0 0.00 0.00 0.00 26 982.9
20260501233708 89 247 2.6 2.6 0.00 0.00 0.00 25 982.6
20260501233205 89 248 0.0 0.0 0.00 0.00 0.00 25 982.9
20260501232701 88 230 0.0 0.9 0.00 0.00 0.00 26 983.0
20260501232159 88 207 5.2 6.1 0.00 0.00 0.00 26 982.9
20260501231656 87 202 2.6 2.6 0.00 0.00 0.00 27 983.0
20260501231154 88 222 0.0 0.0 0.00 0.00 0.00 26 983.1
20260501230652 88 251 3.5 5.2 0.00 0.00 0.00 26 982.9
20260501230150 89 248 4.3 5.2 0.00 0.00 0.00 26 983.1
20260501225648 88 227 0.0 0.0 0.00 0.00 0.00 26 982.9
20260501225144 88 238 3.5 4.3 0.00 0.00 0.00 26 983.1
20260501224641 87 224 1.7 2.6 0.00 0.00 0.00 27 983.3
20260501224138 88 226 0.9 2.6 0.00 0.00 0.00 25 983.3
20260501223634 88 221 7.0 7.0 0.00 0.00 0.00 26 983.4
20260501223131 87 217 3.5 4.3 0.00 0.00 0.00 24 983.3
20260501222627 88 230 3.5 5.2 0.00 0.00 0.00 26 983.6
20260501222124 88 250 3.5 6.1 0.00 0.00 0.00 26 983.6
20260501221621 88 239 5.2 7.0 0.00 0.00 0.00 26 983.5
20260501221118 87 244 4.3 5.2 0.00 0.00 0.00 26 983.6
20260501220616 88 225 4.3 6.1 0.00 0.00 0.00 28 983.6
20260501220113 87 248 3.5 7.0 0.00 0.00 0.00 29 983.9
20260501215609 86 245 6.1 7.8 0.00 0.00 0.00 28 983.8
20260501215105 87 214 6.1 8.7 0.00 0.00 0.00 30 984.0
20260501214600 87 233 2.6 4.3 0.00 0.00 0.00 28 984.0
20260501214055 87 226 5.2 7.0 0.00 0.00 0.00 29 984.0
20260501213553 86 245 4.3 6.1 0.00 0.00 0.00 29 984.4
20260501213049 87 233 7.0 7.8 0.00 0.00 0.00 30 984.5
20260501212545 87 258 2.6 2.6 0.00 0.00 0.00 29 984.4
20260501212042 87 291 6.1 7.0 0.00 0.00 0.00 30 984.4
20260501211539 87 244 1.7 2.6 0.00 0.00 0.00 29 984.5
20260501211037 86 260 2.6 4.3 0.00 0.00 0.00 30 984.5
20260501210533 86 293 6.1 7.0 0.00 0.00 0.00 29 984.6
20260501210030 86 228 4.3 7.0 0.00 0.00 0.00 29 984.6
20260501205526 86 267 2.6 4.3 0.00 0.00 0.00 29 984.6
20260501205025 86 231 3.5 4.3 0.00 0.00 0.00 29 984.8
20260501204520 85 274 2.6 5.2 0.00 0.00 0.00 29 985.0
20260501204016 85 264 0.0 0.0 0.00 0.00 0.00 31 985.0
20260501203513 85 217 0.0 0.0 0.00 0.00 0.00 31 984.9
20260501203011 87 229 0.9 0.9 0.00 0.00 0.00 30 985.0
20260501202507 86 237 3.5 6.1 0.00 0.00 0.00 31 985.0
20260501202004 85 269 0.0 0.0 0.00 0.00 0.00 30 984.9
20260501201501 85 294 6.1 7.0 0.00 0.00 0.00 31 985.1
20260501200958 86 221 1.7 1.7 0.00 0.00 0.00 30 985.2
20260501200455 85 242 1.7 2.6 0.00 0.00 0.00 31 985.2
20260501195952 84 223 0.0 0.9 0.00 0.00 0.00 31 985.1
20260501195449 83 248 2.6 5.2 0.00 0.00 0.00 30 985.3
20260501194945 84 223 1.7 2.6 0.00 0.00 0.00 31 985.4
20260501194440 84 216 1.7 2.6 0.00 0.00 0.00 30 985.3
20260501193937 84 221 5.2 6.1 0.00 0.00 0.00 31 985.5
20260501193435 84 235 5.2 7.8 0.00 0.00 0.00 30 985.3
20260501192933 85 236 4.3 6.1 0.00 0.00 0.00 31 985.6
20260501192429 84 260 1.7 1.7 0.00 0.00 0.00 32 985.8
20260501191927 83 243 3.5 6.1 0.00 0.00 0.00 33 985.8
20260501191424 83 216 4.3 5.2 0.00 0.00 0.00 33 986.0
20260501190921 83 259 2.6 2.6 0.00 0.00 0.00 34 985.7
20260501190417 82 229 0.0 0.9 0.00 0.00 0.00 33 985.9
20260501185917 82 213 0.9 1.7 0.00 0.00 0.00 35 986.1
20260501185414 83 250 2.6 2.6 0.00 0.00 0.00 33 985.9
20260501184909 83 257 2.6 2.6 0.00 0.00 0.00 34 986.2
20260501184406 82 225 0.0 0.9 0.00 0.00 0.00 35 986.4
20260501183901 81 239 5.2 7.8 0.00 0.00 0.00 35 986.2
20260501183359 83 207 6.1 7.0 0.00 0.00 0.00 35 986.6
20260501182855 83 212 0.0 0.0 0.00 0.00 0.00 34 986.5
20260501182352 82 214 0.9 0.9 0.00 0.00 0.00 35 986.9
20260501181849 80 278 4.3 5.2 0.00 0.00 0.00 36 986.6
20260501181346 81 217 1.7 1.7 0.00 0.00 0.00 35 986.9
20260501180844 81 271 1.7 1.7 0.00 0.00 0.00 36 986.6
20260501180339 80 269 5.2 6.1 0.00 0.00 0.00 36 986.9
20260501175837 79 230 0.9 0.9 0.00 0.00 0.00 37 986.9
20260501175333 79 223 5.2 6.1 0.00 0.00 0.00 37 987.2
20260501174830 80 222 0.9 0.9 0.00 0.00 0.00 36 987.0
20260501174327 81 243 0.9 1.7 0.00 0.00 0.00 36 987.1
20260501173825 80 221 0.9 0.9 0.00 0.00 0.00 36 987.1
20260501173323 81 253 1.7 1.7 0.00 0.00 0.00 36 987.2
20260501172818 78 230 2.6 4.3 0.00 0.00 0.00 36 987.0
20260501172313 79 256 3.5 4.3 0.00 0.00 0.00 36 987.2